Погода в Балхаше

Погода в Балхаше : погода сейчас, прогноз погоды и архив. Всё, что Вы хотите узнать о погоде в Балхаше!

Хотите узнать прогноз погоды в Балхаше? Тогда Вам сюда: Погода в Балхаше

Поиск расширенной информации на нашем сайте:

Полезная информация:

Другие новости

Новости СМИ2

Главная страница сайта

Новости сайта

03.07.2017

Напоминаем, что на нашем специализированном сайте Метеоцентр.Азия вы можете получить высокодетализированные автоматические прогнозы погоды по пунктам России, СНГ и мира в авиационном формате (включающие направление и скорость ветра, видимость, явления погоды, количество и форму облачности, нижнюю и верхнюю границу облачности).

Рекомендуем:

Погода в Балхаше - сегодня

Время (UTC), дата Ветер
(°,м/с) 
Видим.   Явления Облачность Т
(°С)
Тd
(°С)
f(%) Тe
(°С)
Pmin
(гПа)
dP
(гПа)
Po
(мм)
O2
(г/м3)
Тmin Tmax R s Состояние
почвы
09 15.09.19 190 (Ю) 20000 м    9/8 1000 м средняя 
[Sc|Ac trans]
+20.1 +11.1 56 +23  1016  -1.3  732  273           
12 15.09.19 220 (ЮЗ) 20000 м    9/8 1000 м средняя 
[Sc|Ac trans]
+20.4 +11.3 56 +24  1015.9  732  272           
15 15.09.19 120 (ЮВ) 10 км    9/8 1000 м средняя 
[Sc|Ac trans]
+19.4 +5 39 +20  1016.6  0.4  732  275    +23.3       
18 15.09.19 070 (В) 10 км    9/9 1000 м 
[Sc]
+18.7 +3.3 36 +19  1016.4  -0.3  732  275    +23.3       
21 15.09.19 210 (ЮЗ) 10 км    10/10 1000 м 
[Sc]
+17 +12.5 75 +23  1016.1  -0.4  732  275           
00 16.09.19 290 (З) 10 км    10/10 1000 м 
[Sc]
+17.5 +5.5 45 +18  1017  0.9  732  276           
03 16.09.19 040 (СВ) 10 км  слаб. ливневой дождь  10/10 600 м кучево-дожд. 
[Cb cap]
+13.5 +12 91 +18  1018.5  0.9  733  279           
06 16.09.19 150 (ЮВ) 20000 м  {ливн. осадки}  6/0 средняя, верхняя 
[Ac As|Ci fib]
+17.8 +11 64 +21  1017.3  -0.6  733  275  +1.3       
09 16.09.19 180 (Ю) 20000 м    4/4 1000 м 
[Cu med, cong]
+19.2 +10.8 58 +23  1015.3  -1.7  731  273           
12 16.09.19 240 (ЮЗ) 20000 м    8/3 600 м кучево-дожд., верхняя 
[Cb calv|Ci ing]
+17.9 +9.7 59 +19  1015.2  -0.3  731  275           
15 16.09.19 тихо ()   10 км    3/1 1000 м верхняя 
[Sc|Ci sp]
+16.1 +10.5 69 +18  1016.6  1.1  732  277    +20.4       
18 16.09.19 050 (СВ) 10 км    ясно 
+13.3 +10.1 81 +16  1017.7  0.7  732  280    +20.4  0.0     
21 16.09.19 080 (В) 10 км    1/0 верхняя 
[Ci sp]
+11.6 +9.4 86 +14  1018.2  0.2  733  281           
00 17.09.19 050 (СВ) 10 км    ясно 
+9.9 +8.7 92 +9  1019.8  1.3  734  284           
03 17.09.19 050 (СВ) 20000 м    3/0 средняя, верхняя 
[Ac trans|Ci sp]
+12.6 +9.9 84 +13  1021.5  735  281           
06 17.09.19 200 (Ю) 10 км  дым  8/0 верхняя 
[Ci sp]
+17.9 +11.8 67 +22  1021.8  1.1  736  276  +9.7         
09 17.09.19 180 (Ю) 20000 м    8/3 1000 м средняя, верхняя 
[Cu med, cong|Ac trans|Ci sp]
+19.5 +11.2 59 +23  1021.1  -0.5  735  274           
12 17.09.19 170 (Ю) 20000 м    9/1 1000 м верхняя 
[Sc diur, vesp|Ci fib]
+19.9 +13.3 66 +27  1020.7  -0.3  735  273           
15 17.09.19 130 (ЮВ) 10 км    3/0 средняя 
[Ac trans]
+18 +13.8 76 +26  1021.7  0.7  736  275    +20.8       
18 17.09.19 160 (Ю) 10 км    ясно 
+18.5 +13.6 73 +26  1021.3  -0.3  736  275    +20.8       
21 17.09.19 090 (В) 10 км    ясно 
+13.2 +10.3 83 +16  1021.7  -0.4  735  281           
00 18.09.19 060 (СВ) 10 км    ясно 
+11.5 +9.6 88 +12  1021.7  -0.2  735  282           
03 18.09.19 080 (В) 20000 м    ясно 
+15.2 +10.9 75 +18  1021.5  0.3  735  279           
06 18.09.19 180 (Ю) 20000 м    1/0 верхняя 
[Ci fib]
+20.8 +14.7 68 +30  1019  -1.6  734  272  +11.4         
09 18.09.19 140 (ЮВ) 20000 м    3/0 верхняя 
[Ci fib]
+25.1 +3.7 25 +25  1016.2  -2.2  732  270           
Время (UTC), дата Ветер
(°,м/с) 
Видим.   Явления Облачность Т
(°С)
Тd
(°С)
f(%) Тe
(°С)
Pmin
(гПа)
dP
(гПа)
Po
(мм)
O2
(г/м3)
Тmin Tmax R s Состояние
почвы

Для получения пояснительной информации подведите курсор к названию столбца.

ПОГОДА в Балхаше - архив

Всё, что Вы хотите узнать о погоде в Балхаше - удобно и подробно!

Выберите нужную дату (начиная с 1 января 2018* года) и нажмите кнопку "Найти".
Будут отображены архивные сводки погоды по пункту Балхаш, начиная с указанной даты.


Отображать данные в формате CSV (для использования в таблицах Excel)


Внимание! Наш архив погоды предназначен исключительно для личного некоммерческого использования в познавательных целях. Если Вам необходимы официальные справки о состоянии погоды (для производственных, юридических, коммерческих и т.п. целей), обращайтесь в органы Росгидромета.

*Примечание: данная дата относится к архиву по метеостанциям СССР (Россия, СНГ, Балтия).
Архив по метеостанциям Зарубежной Европы и Азии (кроме Китая) хранится 10 дней, по другим регионам земного шара (Китай, Африка, Америка, Австралия, Океания) - 1 день.

Балхаш - район местоположения метеостанции


Название, широта, долгота, высота метеостанции:
Балхаш 46.8°ш. 75.1°д. 350 м над ур. моря [Казахстан]

Дополнительная информация

В oтличие oт бoльшинства пoгoдных сайтoв мы публикуем пoдрoбную метеoинфoрмацию в детальнoм прoфессиoнальнoм фoрмате.

Характеристики температуры и влажнoсти вoздуха измеряются на высoте 2 м в тени вдали oт зданий и деревьев.
Скoрoсть ветра измеряется на высoте 10 м (на урoвне рoста челoвека скoрoсть ветра ниже в 1.5-2 раза). Если метеoстанция нахoдится в гoрoде или в лесу, тo скoрoсть ветра занижена на 2-4 м/с пo сравнению с oткрытым местoм. Скoрoсть ветра над акватoриями крупных рек и oзёр, а также на вершинах хoлмoв на 2-5 м/с выше, чем в oбычных услoвиях.
Атмoсфернoе давление в разных тoчках местнoсти мoжет значительнo oтличаться oт давления на метеoстанции, в зависимoсти oт услoвий рельефа (при пoдъёме на 10 м давление пoнижается примернo на 1 мм рт.ст.).